Find Local Weather

World > North America > United States > California

Davis, California Regional Weather

Lat: 38.55N, Lon: 121.74W
Wx Zone: CAZ017
Feedback
Expires:201807152000;;526208
ASUS46 KSTO 151915
RWRCA 

NORTHERN AND CENTRAL CA REGIONAL WEATHER ROUNDUP
NATIONAL WEATHER SERVICE SACRAMENTO CA 
1200 PM PDT SUN JUL 15 2018

NOTE: FAIR INDICATES FEW OR NO CLOUDS BELOW 12,000 FEET WITH NO
SIGNIFICANT WEATHER AND/OR OBSTRUCTIONS TO VISIBILITY.


CAZ016>018-152000-
SOUTHERN SACRAMENTO VALLEY
  
CITY           SKY/WX    TMP DP  RH WIND       PRES   REMARKS
AUBURN         SUNNY     88  59  37 SW8       29.99R                  
BEALE AFB      SUNNY     85  62  45 S6        29.90F                  
LINCOLN        FAIR      84  55  37 S6        29.91S                  
MARYSVILLE     SUNNY     84  60  44 SE7       29.92S                  
SAC INTL ARPT  SUNNY     81  59  47 S7        29.91S                  
MATHER AIRPORT SUNNY     75  55  50 SW8       29.92S                  
DOWNTOWN SAC   N/A       82  MM  MM MISG
SAC EXEC ARPT  SUNNY     79  58  48 SW8       29.92S                  
VACAVILLE      SUNNY     84  58  40 SW6       29.93S                  
TRAVIS AFB     SUNNY     76  56  48 SW21      29.91S                  
$$

SKY/WX - Weather  TMP - Temperature  DP - Dewpoint  RH - Relative Humidity
WIND - Wind Direction/Speed PRES - Barometric Pressure